Time,TemperatureF,DewpointF,PressureIn,WindDirection,WindDirectionDegrees,WindSpeedMPH,WindSpeedGustMPH,Humidity,HourlyPrecipIn,Conditions,Clouds,dailyrainin,SoftwareType,DateUTC
2013-01-20 00:03:00,46.3,34.0,30.19,WSW,246,0.0,6.0,62,0.00,,CLR,0.00,VWS V14.01,2013-01-20 06:03:00,
2013-01-20 00:08:00,46.2,33.9,30.19,WSW,246,0.0,6.0,62,0.00,,CLR,0.00,VWS V14.01,2013-01-20 06:08:00,
2013-01-20 00:13:00,46.2,33.9,30.19,WSW,246,0.0,5.0,62,0.00,,CLR,0.00,VWS V14.01,2013-01-20 06:13:00,
2013-01-20 00:18:00,46.1,33.8,30.19,West,268,5.0,6.0,62,0.00,,CLR,0.00,VWS V14.01,2013-01-20 06:18:00,
2013-01-20 00:23:00,46.1,33.8,30.19,West,279,0.0,7.0,62,0.00,,CLR,0.00,VWS V14.01,2013-01-20 06:23:00,
2013-01-20 00:28:00,46.1,34.6,30.19,WNW,284,0.0,4.0,64,0.00,,CLR,0.00,VWS V14.01,2013-01-20 06:28:00,
2013-01-20 00:33:00,46.1,34.2,30.19,WSW,244,0.0,6.0,63,0.00,,CLR,0.00,VWS V14.01,2013-01-20 06:33:00,
2013-01-20 00:38:00,46.0,34.1,30.19,WSW,251,0.0,4.0,63,0.00,,CLR,0.00,VWS V14.01,2013-01-20 06:38:00,
2013-01-20 00:43:00,45.9,34.0,30.18,WSW,246,5.0,7.0,63,0.00,,CLR,0.00,VWS V14.01,2013-01-20 06:43:00,
2013-01-20 00:48:00,45.7,33.8,30.19,WSW,250,0.0,5.0,63,0.00,,CLR,0.00,VWS V14.01,2013-01-20 06:48:00,
2013-01-20 00:53:00,45.5,34.0,30.18,WSW,250,0.0,4.0,64,0.00,,CLR,0.00,VWS V14.01,2013-01-20 06:53:00,
2013-01-20 00:58:00,45.4,34.0,30.18,West,260,1.0,6.0,64,0.00,,CLR,0.00,VWS V14.01,2013-01-20 06:58:00,
2013-01-20 01:03:00,45.4,34.0,30.18,West,264,0.0,9.0,64,0.00,,CLR,0.00,VWS V14.01,2013-01-20 07:03:00,
2013-01-20 01:08:00,45.4,34.0,30.18,WSW,242,0.0,5.0,64,0.00,,CLR,0.00,VWS V14.01,2013-01-20 07:08:00,
2013-01-20 01:13:00,45.3,33.9,30.19,WSW,249,0.0,5.0,64,0.00,,CLR,0.00,VWS V14.01,2013-01-20 07:13:00,
2013-01-20 01:18:00,45.2,33.8,30.19,SW,216,0.0,7.0,64,0.00,,CLR,0.00,VWS V14.01,2013-01-20 07:18:00,
2013-01-20 01:23:00,45.1,34.0,30.19,WSW,256,0.0,7.0,65,0.00,,CLR,0.00,VWS V14.01,2013-01-20 07:23:00,
2013-01-20 01:28:00,45.1,34.0,30.19,SW,226,2.0,5.0,65,0.00,,CLR,0.00,VWS V14.01,2013-01-20 07:28:00,
2013-01-20 01:33:00,45.1,34.0,30.19,WSW,252,0.0,4.0,65,0.00,,CLR,0.00,VWS V14.01,2013-01-20 07:33:00,
2013-01-20 01:38:00,45.0,34.0,30.19,WSW,254,0.0,1.0,65,0.00,,CLR,0.00,VWS V14.01,2013-01-20 07:38:00,
2013-01-20 01:43:00,44.8,34.2,30.19,WSW,253,0.0,3.0,66,0.00,,CLR,0.00,VWS V14.01,2013-01-20 07:43:00,
2013-01-20 01:48:00,44.6,34.0,30.19,West,263,0.0,7.0,66,0.00,,CLR,0.00,VWS V14.01,2013-01-20 07:48:00,
2013-01-20 01:53:00,44.7,34.0,30.19,WSW,254,0.0,2.0,66,0.00,,CLR,0.00,VWS V14.01,2013-01-20 07:53:00,
2013-01-20 01:58:00,44.7,34.0,30.19,WSW,254,0.0,0.0,66,0.00,,CLR,0.00,VWS V14.01,2013-01-20 07:58:00,
2013-01-20 02:03:00,44.6,34.0,30.19,WNW,283,0.0,6.0,66,0.00,,CLR,0.00,VWS V14.01,2013-01-20 08:03:00,
2013-01-20 02:08:00,44.6,34.0,30.19,WSW,250,0.0,0.0,66,0.00,,CLR,0.00,VWS V14.01,2013-01-20 08:08:00,
2013-01-20 02:13:00,44.5,33.9,30.19,WSW,249,0.0,2.0,66,0.00,,CLR,0.00,VWS V14.01,2013-01-20 08:13:00,
2013-01-20 02:18:00,44.3,34.0,30.19,WSW,249,0.0,0.0,67,0.00,,CLR,0.00,VWS V14.01,2013-01-20 08:18:00,
2013-01-20 02:23:00,44.2,34.0,30.19,West,271,0.0,4.0,67,0.00,,CLR,0.00,VWS V14.01,2013-01-20 08:23:00,
2013-01-20 02:28:00,44.1,33.9,30.19,West,271,0.0,0.0,67,0.00,,CLR,0.00,VWS V14.01,2013-01-20 08:28:00,
2013-01-20 02:33:00,43.9,33.7,30.19,West,269,0.0,5.0,67,0.00,,CLR,0.00,VWS V14.01,2013-01-20 08:33:00,
2013-01-20 02:38:00,43.8,33.6,30.19,West,269,0.0,0.0,67,0.00,,CLR,0.00,VWS V14.01,2013-01-20 08:38:00,
2013-01-20 02:43:00,43.7,33.5,30.19,West,264,0.0,4.0,67,0.00,,CLR,0.00,VWS V14.01,2013-01-20 08:43:00,
2013-01-20 02:48:00,43.5,33.3,30.19,West,261,0.0,4.0,67,0.00,,CLR,0.00,VWS V14.01,2013-01-20 08:48:00,
2013-01-20 02:53:00,43.4,33.2,30.19,West,261,0.0,0.0,67,0.00,,CLR,0.00,VWS V14.01,2013-01-20 08:53:00,
2013-01-20 02:58:00,43.3,33.5,30.19,West,262,0.0,2.0,68,0.00,,CLR,0.00,VWS V14.01,2013-01-20 08:58:00,
2013-01-20 03:03:00,43.2,33.4,30.19,West,262,0.0,0.0,68,0.00,,CLR,0.00,VWS V14.01,2013-01-20 09:03:00,
2013-01-20 03:08:00,43.0,33.2,30.19,West,262,0.0,0.0,68,0.00,,CLR,0.00,VWS V14.01,2013-01-20 09:08:00,
2013-01-20 03:13:00,42.9,33.4,30.19,West,261,0.0,0.0,69,0.00,,CLR,0.00,VWS V14.01,2013-01-20 09:13:00,
2013-01-20 03:18:00,42.7,33.2,30.19,West,262,0.0,1.0,69,0.00,,CLR,0.00,VWS V14.01,2013-01-20 09:18:00,
2013-01-20 03:23:00,42.7,33.2,30.19,West,262,0.0,0.0,69,0.00,,CLR,0.00,VWS V14.01,2013-01-20 09:23:00,
2013-01-20 03:28:00,42.6,33.2,30.19,West,262,0.0,0.0,69,0.00,,CLR,0.00,VWS V14.01,2013-01-20 09:28:00,
2013-01-20 03:33:00,42.4,33.0,30.19,West,261,0.0,1.0,69,0.00,,CLR,0.00,VWS V14.01,2013-01-20 09:33:00,
2013-01-20 03:38:00,42.3,33.2,30.19,West,261,0.0,0.0,70,0.00,,CLR,0.00,VWS V14.01,2013-01-20 09:38:00,
2013-01-20 03:43:00,42.2,33.1,30.19,West,262,0.0,0.0,70,0.00,,CLR,0.00,VWS V14.01,2013-01-20 09:43:00,
2013-01-20 03:48:00,42.1,33.0,30.19,West,262,0.0,0.0,70,0.00,,CLR,0.00,VWS V14.01,2013-01-20 09:48:00,
2013-01-20 03:53:00,42.0,32.9,30.19,West,261,0.0,0.0,70,0.00,,CLR,0.00,VWS V14.01,2013-01-20 09:53:00,
2013-01-20 03:58:00,41.9,33.2,30.19,West,262,0.0,0.0,71,0.00,,CLR,0.00,VWS V14.01,2013-01-20 09:58:00,
2013-01-20 04:03:00,41.8,33.1,30.19,West,262,0.0,0.0,71,0.00,,CLR,0.00,VWS V14.01,2013-01-20 10:03:00,
2013-01-20 04:08:00,41.7,33.0,30.19,West,262,0.0,0.0,71,0.00,,CLR,0.00,VWS V14.01,2013-01-20 10:08:00,
2013-01-20 04:13:00,41.6,32.9,30.19,West,261,0.0,0.0,71,0.00,,CLR,0.00,VWS V14.01,2013-01-20 10:13:00,
2013-01-20 04:18:00,41.5,33.2,30.19,West,261,0.0,0.0,72,0.00,,CLR,0.00,VWS V14.01,2013-01-20 10:18:00,
2013-01-20 04:23:00,41.4,33.1,30.19,West,262,0.0,0.0,72,0.00,,CLR,0.00,VWS V14.01,2013-01-20 10:23:00,
2013-01-20 04:28:00,41.4,33.1,30.19,West,262,0.0,0.0,72,0.00,,CLR,0.00,VWS V14.01,2013-01-20 10:28:00,
2013-01-20 04:33:00,41.3,33.0,30.19,West,261,0.0,0.0,72,0.00,,CLR,0.00,VWS V14.01,2013-01-20 10:33:00,
2013-01-20 04:38:00,41.1,33.1,30.19,West,261,0.0,0.0,73,0.00,,CLR,0.00,VWS V14.01,2013-01-20 10:38:00,
2013-01-20 04:43:00,41.0,33.0,30.19,West,262,0.0,0.0,73,0.00,,CLR,0.00,VWS V14.01,2013-01-20 10:43:00,
2013-01-20 04:48:00,40.9,32.9,30.19,West,262,0.0,0.0,73,0.00,,CLR,0.00,VWS V14.01,2013-01-20 10:48:00,
2013-01-20 04:53:00,40.9,32.9,30.19,West,261,0.0,0.0,73,0.00,,CLR,0.00,VWS V14.01,2013-01-20 10:53:00,
2013-01-20 04:58:00,40.7,32.7,30.19,West,262,0.0,0.0,73,0.00,,CLR,0.00,VWS V14.01,2013-01-20 10:58:00,
2013-01-20 05:03:00,40.6,33.0,30.19,West,262,0.0,0.0,74,0.00,,CLR,0.00,VWS V14.01,2013-01-20 11:03:00,
2013-01-20 05:08:00,40.6,33.0,30.19,West,262,0.0,0.0,74,0.00,,CLR,0.00,VWS V14.01,2013-01-20 11:08:00,
2013-01-20 05:13:00,40.5,33.2,30.20,West,262,0.0,0.0,75,0.00,,CLR,0.00,VWS V14.01,2013-01-20 11:13:00,
2013-01-20 05:18:00,40.4,33.1,30.20,West,261,0.0,0.0,75,0.00,,CLR,0.00,VWS V14.01,2013-01-20 11:18:00,
2013-01-20 05:23:00,40.3,33.0,30.20,West,261,0.0,0.0,75,0.00,,CLR,0.00,VWS V14.01,2013-01-20 11:23:00,
2013-01-20 05:28:00,40.3,33.0,30.20,West,262,0.0,0.0,75,0.00,,CLR,0.00,VWS V14.01,2013-01-20 11:28:00,
2013-01-20 05:33:00,40.2,33.2,30.20,West,262,0.0,0.0,76,0.00,,CLR,0.00,VWS V14.01,2013-01-20 11:33:00,
2013-01-20 05:38:00,40.1,33.2,30.21,West,262,0.0,0.0,76,0.00,,CLR,0.00,VWS V14.01,2013-01-20 11:38:00,
2013-01-20 05:43:00,40.1,33.2,30.21,West,261,0.0,0.0,76,0.00,,CLR,0.00,VWS V14.01,2013-01-20 11:43:00,
2013-01-20 05:48:00,40.0,33.1,30.21,West,261,0.0,0.0,76,0.00,,CLR,0.00,VWS V14.01,2013-01-20 11:48:00,
2013-01-20 05:53:00,39.9,33.3,30.21,West,262,0.0,0.0,77,0.00,,CLR,0.00,VWS V14.01,2013-01-20 11:53:00,
2013-01-20 05:58:00,39.8,33.2,30.21,West,262,0.0,0.0,77,0.00,,CLR,0.00,VWS V14.01,2013-01-20 11:58:00,
2013-01-20 06:02:00,39.6,33.3,30.22,West,262,0.0,0.0,78,0.00,,CLR,0.00,VWS V14.01,2013-01-20 12:02:00,
2013-01-20 06:07:00,39.3,33.0,30.22,West,261,0.0,0.0,78,0.00,,CLR,0.00,VWS V14.01,2013-01-20 12:07:00,
2013-01-20 06:12:00,39.0,32.7,30.22,West,262,0.0,0.0,78,0.00,,CLR,0.00,VWS V14.01,2013-01-20 12:12:00,
2013-01-20 06:17:00,38.7,32.8,30.22,West,262,0.0,0.0,79,0.00,,CLR,0.00,VWS V14.01,2013-01-20 12:17:00,
2013-01-20 06:22:00,38.4,32.5,30.22,West,262,0.0,0.0,79,0.00,,CLR,0.00,VWS V14.01,2013-01-20 12:22:00,
2013-01-20 06:27:00,38.0,32.4,30.22,West,262,0.0,0.0,80,0.00,,CLR,0.00,VWS V14.01,2013-01-20 12:27:00,
2013-01-20 06:32:00,37.6,32.0,30.23,West,261,0.0,0.0,80,0.00,,CLR,0.00,VWS V14.01,2013-01-20 12:32:00,
2013-01-20 06:37:00,37.2,31.9,30.23,West,262,0.0,0.0,81,0.00,,CLR,0.00,VWS V14.01,2013-01-20 12:37:00,
2013-01-20 06:42:00,36.8,31.8,30.23,West,262,0.0,0.0,82,0.00,,CLR,0.00,VWS V14.01,2013-01-20 12:42:00,
2013-01-20 06:47:00,36.3,31.6,30.23,West,262,0.0,0.0,83,0.00,,CLR,0.00,VWS V14.01,2013-01-20 12:47:00,
2013-01-20 06:52:00,35.9,31.5,30.23,West,262,0.0,0.0,84,0.00,,CLR,0.00,VWS V14.01,2013-01-20 12:52:00,
2013-01-20 06:57:00,35.4,31.1,30.23,West,262,0.0,0.0,84,0.00,,CLR,0.00,VWS V14.01,2013-01-20 12:57:00,
2013-01-20 07:02:00,35.1,31.0,30.23,West,261,0.0,0.0,85,0.00,,CLR,0.00,VWS V14.01,2013-01-20 13:02:00,
2013-01-20 07:07:00,34.8,31.0,30.23,West,261,0.0,0.0,86,0.00,,CLR,0.00,VWS V14.01,2013-01-20 13:07:00,
2013-01-20 07:12:00,34.6,30.9,30.23,West,262,0.0,0.0,86,0.00,,CLR,0.00,VWS V14.01,2013-01-20 13:12:00,
2013-01-20 07:17:00,34.4,30.6,30.23,West,261,0.0,0.0,86,0.00,,CLR,0.00,VWS V14.01,2013-01-20 13:17:00,
2013-01-20 07:22:00,34.1,30.6,30.23,West,262,0.0,0.0,87,0.00,,CLR,0.00,VWS V14.01,2013-01-20 13:22:00,
2013-01-20 07:27:00,33.9,30.7,30.23,West,261,0.0,0.0,88,0.00,,CLR,0.00,VWS V14.01,2013-01-20 13:27:00,
2013-01-20 07:32:00,33.7,30.5,30.24,West,262,0.0,0.0,88,0.00,,CLR,0.00,VWS V14.01,2013-01-20 13:32:00,
2013-01-20 07:37:00,33.7,30.5,30.24,West,262,0.0,0.0,88,0.00,,CLR,0.00,VWS V14.01,2013-01-20 13:37:00,
2013-01-20 07:42:00,33.7,30.8,30.24,West,261,0.0,0.0,89,0.00,,CLR,0.00,VWS V14.01,2013-01-20 13:42:00,
2013-01-20 07:47:00,33.8,30.9,30.25,West,262,0.0,0.0,89,0.00,,CLR,0.00,VWS V14.01,2013-01-20 13:47:00,
2013-01-20 07:52:00,34.1,31.5,30.25,West,262,0.0,0.0,90,0.00,,CLR,0.00,VWS V14.01,2013-01-20 13:52:00,
2013-01-20 07:57:00,34.4,31.8,30.25,West,262,0.0,0.0,90,0.00,,CLR,0.00,VWS V14.01,2013-01-20 13:57:00,
2013-01-20 08:02:00,35.0,32.4,30.25,West,261,0.0,0.0,90,0.00,,CLR,0.00,VWS V14.01,2013-01-20 14:02:00,
2013-01-20 08:07:00,35.6,32.7,30.26,West,261,0.0,0.0,89,0.00,,CLR,0.00,VWS V14.01,2013-01-20 14:07:00,
2013-01-20 08:12:00,36.1,32.9,30.26,West,261,0.0,0.0,88,0.00,,CLR,0.00,VWS V14.01,2013-01-20 14:12:00,
2013-01-20 08:17:00,36.7,33.8,30.26,West,262,0.0,0.0,89,0.00,,CLR,0.00,VWS V14.01,2013-01-20 14:17:00,
2013-01-20 08:22:00,37.8,34.3,30.26,West,262,0.0,0.0,87,0.00,,CLR,0.00,VWS V14.01,2013-01-20 14:22:00,
2013-01-20 08:27:00,38.9,34.8,30.26,West,261,0.0,0.0,85,0.00,,CLR,0.00,VWS V14.01,2013-01-20 14:27:00,
2013-01-20 08:32:00,40.0,35.6,30.26,West,262,0.0,0.0,84,0.00,,CLR,0.00,VWS V14.01,2013-01-20 14:32:00,
2013-01-20 08:37:00,40.8,35.4,30.27,NNE,21,0.0,2.0,81,0.00,,CLR,0.00,VWS V14.01,2013-01-20 14:37:00,
2013-01-20 08:42:00,41.9,36.2,30.27,West,279,0.0,7.0,80,0.00,,CLR,0.00,VWS V14.01,2013-01-20 14:42:00,
2013-01-20 08:47:00,42.7,36.3,30.27,NE,36,0.0,8.0,78,0.00,,CLR,0.00,VWS V14.01,2013-01-20 14:47:00,
2013-01-20 08:52:00,43.8,36.7,30.27,North,355,7.0,8.0,76,0.00,,CLR,0.00,VWS V14.01,2013-01-20 14:52:00,
2013-01-20 08:57:00,44.4,36.3,30.27,NNE,15,3.0,6.0,73,0.00,,CLR,0.00,VWS V14.01,2013-01-20 14:57:00,
2013-01-20 09:02:00,44.9,36.8,30.27,NNE,13,4.0,6.0,73,0.00,,CLR,0.00,VWS V14.01,2013-01-20 15:02:00,
2013-01-20 09:07:00,45.2,36.0,30.27,NE,40,0.0,7.0,70,0.00,,CLR,0.00,VWS V14.01,2013-01-20 15:07:00,
2013-01-20 09:12:00,45.4,35.8,30.28,NE,36,4.0,7.0,69,0.00,,CLR,0.00,VWS V14.01,2013-01-20 15:12:00,
2013-01-20 09:17:00,45.4,35.8,30.28,NNE,28,0.0,6.0,69,0.00,,CLR,0.00,VWS V14.01,2013-01-20 15:17:00,
2013-01-20 09:22:00,45.6,36.0,30.28,North,355,0.0,5.0,69,0.00,,CLR,0.00,VWS V14.01,2013-01-20 15:22:00,
2013-01-20 09:27:00,46.0,35.7,30.29,NE,34,0.0,6.0,67,0.00,,CLR,0.00,VWS V14.01,2013-01-20 15:27:00,
2013-01-20 09:32:00,46.1,34.6,30.29,NNE,30,5.0,7.0,64,0.00,,CLR,0.00,VWS V14.01,2013-01-20 15:32:00,
2013-01-20 09:37:00,46.0,34.1,30.29,North,11,0.0,8.0,63,0.00,,CLR,0.00,VWS V14.01,2013-01-20 15:37:00,
2013-01-20 09:42:00,46.1,35.0,30.29,NE,34,0.0,4.0,65,0.00,,CLR,0.00,VWS V14.01,2013-01-20 15:42:00,
2013-01-20 09:47:00,46.4,34.9,30.29,NE,46,0.0,4.0,64,0.00,,CLR,0.00,VWS V14.01,2013-01-20 15:47:00,
2013-01-20 09:52:00,46.6,34.7,30.29,NE,48,0.0,4.0,63,0.00,,CLR,0.00,VWS V14.01,2013-01-20 15:52:00,
2013-01-20 09:57:00,46.9,35.0,30.29,ENE,76,1.0,2.0,63,0.00,,CLR,0.00,VWS V14.01,2013-01-20 15:57:00,
2013-01-20 10:02:00,47.0,34.7,30.29,ENE,70,0.0,4.0,62,0.00,,CLR,0.00,VWS V14.01,2013-01-20 16:02:00,
2013-01-20 10:07:00,47.0,33.8,30.29,NE,34,0.0,3.0,60,0.00,,CLR,0.00,VWS V14.01,2013-01-20 16:07:00,
2013-01-20 10:12:00,47.1,34.4,30.28,NE,38,3.0,5.0,61,0.00,,CLR,0.00,VWS V14.01,2013-01-20 16:12:00,
2013-01-20 10:17:00,47.1,34.4,30.28,NE,44,2.0,6.0,61,0.00,,CLR,0.00,VWS V14.01,2013-01-20 16:17:00,
2013-01-20 10:22:00,47.2,33.6,30.28,NNE,28,0.0,6.0,59,0.00,,CLR,0.00,VWS V14.01,2013-01-20 16:22:00,
2013-01-20 10:27:00,47.2,33.6,30.28,NNE,27,0.0,1.0,59,0.00,,CLR,0.00,VWS V14.01,2013-01-20 16:27:00,
2013-01-20 10:32:00,47.5,34.3,30.28,NE,40,0.0,1.0,60,0.00,,CLR,0.00,VWS V14.01,2013-01-20 16:32:00,
2013-01-20 10:37:00,47.7,33.7,30.27,NE,55,2.0,9.0,58,0.00,,CLR,0.00,VWS V14.01,2013-01-20 16:37:00,
2013-01-20 10:42:00,47.8,34.2,30.27,NNE,32,2.0,5.0,59,0.00,,CLR,0.00,VWS V14.01,2013-01-20 16:42:00,
2013-01-20 10:47:00,47.8,34.2,30.27,NE,34,0.0,2.0,59,0.00,,CLR,0.00,VWS V14.01,2013-01-20 16:47:00,
2013-01-20 10:52:00,48.1,33.6,30.27,NE,48,0.0,5.0,57,0.00,,CLR,0.00,VWS V14.01,2013-01-20 16:52:00,
2013-01-20 10:57:00,48.3,33.3,30.27,North,11,1.0,5.0,56,0.00,,CLR,0.00,VWS V14.01,2013-01-20 16:57:00,
2013-01-20 11:02:00,48.3,32.9,30.27,NE,41,3.0,7.0,55,0.00,,CLR,0.00,VWS V14.01,2013-01-20 17:02:00,
2013-01-20 11:07:00,48.4,33.4,30.27,ENE,57,0.0,5.0,56,0.00,,CLR,0.00,VWS V14.01,2013-01-20 17:07:00,
2013-01-20 11:12:00,48.6,33.2,30.26,North,5,2.0,4.0,55,0.00,,CLR,0.00,VWS V14.01,2013-01-20 17:12:00,
2013-01-20 11:17:00,48.7,32.8,30.26,NNE,28,0.0,1.0,54,0.00,,CLR,0.00,VWS V14.01,2013-01-20 17:17:00,
2013-01-20 11:22:00,48.8,32.4,30.25,SSE,150,0.0,5.0,53,0.00,,CLR,0.00,VWS V14.01,2013-01-20 17:22:00,
2013-01-20 11:27:00,49.0,32.6,30.25,ENE,65,0.0,3.0,53,0.00,,CLR,0.00,VWS V14.01,2013-01-20 17:27:00,
2013-01-20 11:32:00,49.3,32.9,30.25,NW,311,2.0,4.0,53,0.00,,CLR,0.00,VWS V14.01,2013-01-20 17:32:00,
2013-01-20 11:37:00,49.5,31.6,30.24,NW,323,3.0,8.0,50,0.00,,CLR,0.00,VWS V14.01,2013-01-20 17:37:00,
2013-01-20 11:42:00,49.6,31.2,30.24,NW,322,0.0,6.0,49,0.00,,CLR,0.00,VWS V14.01,2013-01-20 17:42:00,
2013-01-20 11:47:00,49.8,31.9,30.24,North,11,0.0,7.0,50,0.00,,CLR,0.00,VWS V14.01,2013-01-20 17:47:00,
2013-01-20 11:52:00,50.0,31.1,30.24,NNE,18,0.0,4.0,48,0.00,,CLR,0.00,VWS V14.01,2013-01-20 17:52:00,
2013-01-20 11:57:00,50.2,31.3,30.24,NNE,14,3.0,4.0,48,0.00,,CLR,0.00,VWS V14.01,2013-01-20 17:57:00,
2013-01-20 12:02:00,50.2,30.8,30.23,NNW,344,2.0,6.0,47,0.00,,CLR,0.00,VWS V14.01,2013-01-20 18:02:00,
2013-01-20 12:07:00,49.9,30.0,30.23,NNW,346,4.0,6.0,46,0.00,,CLR,0.00,VWS V14.01,2013-01-20 18:07:00,
2013-01-20 12:12:00,50.0,30.0,30.23,NNE,16,0.0,0.0,46,0.00,,CLR,0.00,VWS V14.01,2013-01-20 18:12:00,
2013-01-20 12:17:00,50.3,29.8,30.23,NNE,25,0.0,5.0,45,0.00,,CLR,0.00,VWS V14.01,2013-01-20 18:17:00,
2013-01-20 12:22:00,50.5,30.0,30.23,NE,44,0.0,2.0,45,0.00,,CLR,0.00,VWS V14.01,2013-01-20 18:22:00,
2013-01-20 12:27:00,50.4,29.9,30.22,East,86,0.0,6.0,45,0.00,,CLR,0.00,VWS V14.01,2013-01-20 18:27:00,
2013-01-20 12:32:00,50.6,30.1,30.22,North,355,4.0,6.0,45,0.00,,CLR,0.00,VWS V14.01,2013-01-20 18:32:00,
2013-01-20 12:37:00,50.8,29.1,30.21,NNW,333,5.0,8.0,43,0.00,,CLR,0.00,VWS V14.01,2013-01-20 18:37:00,
2013-01-20 12:42:00,50.7,29.6,30.21,NNW,331,0.0,8.0,44,0.00,,CLR,0.00,VWS V14.01,2013-01-20 18:42:00,
2013-01-20 12:47:00,50.7,29.0,30.21,NW,306,0.0,7.0,43,0.00,,CLR,0.00,VWS V14.01,2013-01-20 18:47:00,
2013-01-20 12:52:00,50.8,29.1,30.20,WNW,293,0.0,0.0,43,0.00,,CLR,0.00,VWS V14.01,2013-01-20 18:52:00,
2013-01-20 12:57:00,51.1,29.4,30.20,SSW,208,0.0,3.0,43,0.00,,CLR,0.00,VWS V14.01,2013-01-20 18:57:00,
2013-01-20 13:02:00,51.5,29.8,30.20,SW,233,4.0,4.0,43,0.00,,CLR,0.00,VWS V14.01,2013-01-20 19:02:00,
2013-01-20 13:07:00,51.8,30.0,30.20,ENE,57,3.0,6.0,43,0.00,,CLR,0.00,VWS V14.01,2013-01-20 19:07:00,
2013-01-20 13:12:00,51.9,30.1,30.20,NNE,19,1.0,3.0,43,0.00,,CLR,0.00,VWS V14.01,2013-01-20 19:12:00,
2013-01-20 13:17:00,51.9,30.1,30.20,North,355,4.0,5.0,43,0.00,,CLR,0.00,VWS V14.01,2013-01-20 19:17:00,
2013-01-20 13:22:00,51.9,29.5,30.20,North,351,0.0,2.0,42,0.00,,CLR,0.00,VWS V14.01,2013-01-20 19:22:00,
2013-01-20 13:27:00,52.1,30.3,30.20,North,9,0.0,2.0,43,0.00,,CLR,0.00,VWS V14.01,2013-01-20 19:27:00,
2013-01-20 13:32:00,52.1,29.7,30.20,North,9,0.0,3.0,42,0.00,,CLR,0.00,VWS V14.01,2013-01-20 19:32:00,
2013-01-20 13:37:00,52.3,29.3,30.19,NW,322,0.0,3.0,41,0.00,,CLR,0.00,VWS V14.01,2013-01-20 19:37:00,
2013-01-20 13:42:00,52.5,28.3,30.19,NE,38,0.0,7.0,39,0.00,,CLR,0.00,VWS V14.01,2013-01-20 19:42:00,
2013-01-20 13:47:00,52.4,28.8,30.19,ENE,75,2.0,5.0,40,0.00,,CLR,0.00,VWS V14.01,2013-01-20 19:47:00,
2013-01-20 13:52:00,52.3,29.3,30.19,SSE,159,0.0,2.0,41,0.00,,CLR,0.00,VWS V14.01,2013-01-20 19:52:00,
2013-01-20 13:57:00,52.7,30.3,30.19,SSE,159,0.0,2.0,42,0.00,,CLR,0.00,VWS V14.01,2013-01-20 19:57:00,
2013-01-20 14:02:00,52.8,29.2,30.19,NNE,26,1.0,8.0,40,0.00,,CLR,0.00,VWS V14.01,2013-01-20 20:02:00,
2013-01-20 14:07:00,52.6,29.0,30.19,NNW,331,7.0,7.0,40,0.00,,CLR,0.00,VWS V14.01,2013-01-20 20:07:00,
2013-01-20 14:12:00,52.4,28.8,30.19,WNW,294,2.0,5.0,40,0.00,,CLR,0.00,VWS V14.01,2013-01-20 20:12:00,
2013-01-20 14:17:00,52.6,27.7,30.19,NNE,20,0.0,8.0,38,0.00,,CLR,0.00,VWS V14.01,2013-01-20 20:17:00,
2013-01-20 14:22:00,52.6,27.1,30.19,NNE,23,1.0,3.0,37,0.00,,CLR,0.00,VWS V14.01,2013-01-20 20:22:00,
2013-01-20 14:27:00,52.6,26.4,30.19,NNW,327,6.0,6.0,36,0.00,,CLR,0.00,VWS V14.01,2013-01-20 20:27:00,
2013-01-20 14:32:00,52.5,25.7,30.19,NW,313,0.0,4.0,35,0.00,,CLR,0.00,VWS V14.01,2013-01-20 20:32:00,
2013-01-20 14:37:00,52.4,24.9,30.20,NE,44,0.0,3.0,34,0.00,,CLR,0.00,VWS V14.01,2013-01-20 20:37:00,
2013-01-20 14:42:00,52.6,25.8,30.20,NE,44,0.0,1.0,35,0.00,,CLR,0.00,VWS V14.01,2013-01-20 20:42:00,
2013-01-20 14:47:00,52.9,26.0,30.20,North,9,2.0,6.0,35,0.00,,CLR,0.00,VWS V14.01,2013-01-20 20:47:00,
2013-01-20 14:52:00,53.0,25.4,30.20,North,350,0.0,1.0,34,0.00,,CLR,0.00,VWS V14.01,2013-01-20 20:52:00,
2013-01-20 14:57:00,53.0,24.0,30.20,North,360,0.0,7.0,32,0.00,,CLR,0.00,VWS V14.01,2013-01-20 20:57:00,
2013-01-20 15:02:00,53.1,24.8,30.20,NNW,338,0.0,6.0,33,0.00,,CLR,0.00,VWS V14.01,2013-01-20 21:02:00,
2013-01-20 15:07:00,53.3,25.0,30.20,WNW,296,0.0,3.0,33,0.00,,CLR,0.00,VWS V14.01,2013-01-20 21:07:00,
2013-01-20 15:12:00,53.3,25.0,30.20,North,351,1.0,3.0,33,0.00,,CLR,0.00,VWS V14.01,2013-01-20 21:12:00,
2013-01-20 15:18:00,53.1,24.0,30.20,NNW,337,1.0,8.0,32,0.00,,CLR,0.00,VWS V14.01,2013-01-20 21:18:00,
2013-01-20 15:23:00,52.8,24.5,30.20,NNW,337,0.0,4.0,33,0.00,,CLR,0.00,VWS V14.01,2013-01-20 21:23:00,
2013-01-20 15:28:00,52.7,25.1,30.20,NE,37,0.0,3.0,34,0.00,,CLR,0.00,VWS V14.01,2013-01-20 21:28:00,
2013-01-20 15:33:00,52.7,25.1,30.20,NNW,327,0.0,4.0,34,0.00,,CLR,0.00,VWS V14.01,2013-01-20 21:33:00,
2013-01-20 15:38:00,52.5,25.0,30.20,North,355,1.0,4.0,34,0.00,,CLR,0.00,VWS V14.01,2013-01-20 21:38:00,
2013-01-20 15:43:00,52.3,24.1,30.20,NNW,346,0.0,4.0,33,0.00,,CLR,0.00,VWS V14.01,2013-01-20 21:43:00,
2013-01-20 15:48:00,52.3,24.1,30.20,NNW,346,0.0,1.0,33,0.00,,CLR,0.00,VWS V14.01,2013-01-20 21:48:00,
2013-01-20 15:53:00,52.3,24.8,30.20,North,360,0.0,2.0,34,0.00,,CLR,0.00,VWS V14.01,2013-01-20 21:53:00,
2013-01-20 15:58:00,52.3,24.1,30.20,North,9,0.0,2.0,33,0.00,,CLR,0.00,VWS V14.01,2013-01-20 21:58:00,
2013-01-20 16:03:00,52.2,24.0,30.20,North,9,0.0,1.0,33,0.00,,CLR,0.00,VWS V14.01,2013-01-20 22:03:00,
2013-01-20 16:08:00,52.1,24.6,30.20,NNE,29,0.0,2.0,34,0.00,,CLR,0.00,VWS V14.01,2013-01-20 22:08:00,
2013-01-20 16:13:00,52.0,24.5,30.19,NNE,29,0.0,1.0,34,0.00,,CLR,0.00,VWS V14.01,2013-01-20 22:13:00,
2013-01-20 16:18:00,51.7,24.3,30.20,NNE,33,0.0,1.0,34,0.00,,CLR,0.00,VWS V14.01,2013-01-20 22:18:00,
2013-01-20 16:23:00,51.6,24.9,30.20,NNE,33,0.0,1.0,35,0.00,,CLR,0.00,VWS V14.01,2013-01-20 22:23:00,
2013-01-20 16:28:00,51.4,24.7,30.20,NNE,33,0.0,0.0,35,0.00,,CLR,0.00,VWS V14.01,2013-01-20 22:28:00,
2013-01-20 16:33:00,51.2,23.8,30.20,NNE,33,0.0,1.0,34,0.00,,CLR,0.00,VWS V14.01,2013-01-20 22:33:00,
2013-01-20 16:38:00,51.0,24.3,30.20,NNE,33,0.0,1.0,35,0.00,,CLR,0.00,VWS V14.01,2013-01-20 22:38:00,
2013-01-20 16:43:00,50.7,24.1,30.20,NNE,33,0.0,0.0,35,0.00,,CLR,0.00,VWS V14.01,2013-01-20 22:43:00,
2013-01-20 16:48:00,50.5,24.6,30.19,NNE,33,0.0,0.0,36,0.00,,CLR,0.00,VWS V14.01,2013-01-20 22:48:00,
2013-01-20 16:53:00,50.1,24.2,30.19,NNE,33,0.0,0.0,36,0.00,,CLR,0.00,VWS V14.01,2013-01-20 22:53:00,
2013-01-20 16:58:00,49.9,24.0,30.20,NNE,33,0.0,0.0,36,0.00,,CLR,0.00,VWS V14.01,2013-01-20 22:58:00,
2013-01-20 17:03:00,49.5,25.0,30.20,NNE,33,0.0,0.0,38,0.00,,CLR,0.00,VWS V14.01,2013-01-20 23:03:00,
2013-01-20 17:08:00,49.0,25.1,30.20,NNE,33,0.0,0.0,39,0.00,,CLR,0.00,VWS V14.01,2013-01-20 23:08:00,
2013-01-20 17:13:00,48.6,25.4,30.20,NNE,33,0.0,1.0,40,0.00,,CLR,0.00,VWS V14.01,2013-01-20 23:13:00,
2013-01-20 17:18:00,48.2,24.4,30.20,NNE,33,0.0,0.0,39,0.00,,CLR,0.00,VWS V14.01,2013-01-20 23:18:00,
2013-01-20 17:23:00,47.9,25.4,30.20,NNE,33,0.0,0.0,41,0.00,,CLR,0.00,VWS V14.01,2013-01-20 23:23:00,
2013-01-20 17:28:00,47.4,26.0,30.20,NNE,33,0.0,0.0,43,0.00,,CLR,0.00,VWS V14.01,2013-01-20 23:28:00,
2013-01-20 17:33:00,46.9,26.7,30.20,NNE,33,0.0,0.0,45,0.00,,CLR,0.00,VWS V14.01,2013-01-20 23:33:00,
2013-01-20 17:38:00,46.3,27.2,30.21,NNE,33,0.0,0.0,47,0.00,,CLR,0.00,VWS V14.01,2013-01-20 23:38:00,
2013-01-20 17:43:00,45.7,25.6,30.20,NNE,33,0.0,0.0,45,0.00,,CLR,0.00,VWS V14.01,2013-01-20 23:43:00,
2013-01-20 17:48:00,45.4,25.9,30.21,NNE,33,0.0,0.0,46,0.00,,CLR,0.00,VWS V14.01,2013-01-20 23:48:00,
2013-01-20 17:53:00,45.2,26.2,30.21,NNE,33,0.0,0.0,47,0.00,,CLR,0.00,VWS V14.01,2013-01-20 23:53:00,
2013-01-20 17:58:00,44.9,26.4,30.21,NNE,33,0.0,1.0,48,0.00,,CLR,0.00,VWS V14.01,2013-01-20 23:58:00,
2013-01-20 18:03:00,44.7,25.2,30.21,NNE,33,0.0,1.0,46,0.00,,CLR,0.00,VWS V14.01,2013-01-21 00:03:00,
2013-01-20 18:08:00,44.7,25.2,30.21,NNE,33,0.0,0.0,46,0.00,,CLR,0.00,VWS V14.01,2013-01-21 00:08:00,
2013-01-20 18:13:00,44.7,25.2,30.21,NNE,33,0.0,0.0,46,0.00,,CLR,0.00,VWS V14.01,2013-01-21 00:13:00,
2013-01-20 18:18:00,44.7,25.7,30.21,NNE,33,0.0,1.0,47,0.00,,CLR,0.00,VWS V14.01,2013-01-21 00:18:00,
2013-01-20 18:23:00,44.6,25.6,30.21,NE,37,0.0,3.0,47,0.00,,CLR,0.00,VWS V14.01,2013-01-21 00:23:00,
2013-01-20 18:28:00,44.7,26.2,30.21,NE,38,3.0,4.0,48,0.00,,CLR,0.00,VWS V14.01,2013-01-21 00:28:00,
2013-01-20 18:33:00,44.7,27.2,30.21,NNE,31,0.0,3.0,50,0.00,,CLR,0.00,VWS V14.01,2013-01-21 00:33:00,
2013-01-20 18:38:00,44.6,27.1,30.20,NNE,28,0.0,1.0,50,0.00,,CLR,0.00,VWS V14.01,2013-01-21 00:38:00,
2013-01-20 18:43:00,44.4,27.4,30.20,North,360,0.0,1.0,51,0.00,,CLR,0.00,VWS V14.01,2013-01-21 00:43:00,
2013-01-20 18:48:00,44.2,26.8,30.20,NE,44,2.0,5.0,50,0.00,,CLR,0.00,VWS V14.01,2013-01-21 00:48:00,
2013-01-20 18:53:00,44.1,26.7,30.20,NNE,29,3.0,4.0,50,0.00,,CLR,0.00,VWS V14.01,2013-01-21 00:53:00,
2013-01-20 18:58:00,43.8,26.4,30.20,NNE,32,0.0,5.0,50,0.00,,CLR,0.00,VWS V14.01,2013-01-21 00:58:00,
2013-01-20 19:03:00,43.6,26.2,30.20,NNE,15,0.0,7.0,50,0.00,,CLR,0.00,VWS V14.01,2013-01-21 01:03:00,
2013-01-20 19:08:00,43.3,26.4,30.20,NE,42,4.0,4.0,51,0.00,,CLR,0.00,VWS V14.01,2013-01-21 01:08:00,
2013-01-20 19:13:00,43.1,26.2,30.20,NE,44,0.0,1.0,51,0.00,,CLR,0.00,VWS V14.01,2013-01-21 01:13:00,
2013-01-20 19:18:00,42.8,25.9,30.20,NNE,24,1.0,1.0,51,0.00,,CLR,0.00,VWS V14.01,2013-01-21 01:18:00,
2013-01-20 19:23:00,42.7,25.9,30.20,NNE,28,0.0,1.0,51,0.00,,CLR,0.00,VWS V14.01,2013-01-21 01:23:00,
2013-01-20 19:28:00,42.5,25.2,30.20,NE,53,0.0,3.0,50,0.00,,CLR,0.00,VWS V14.01,2013-01-21 01:28:00,
2013-01-20 19:33:00,42.3,25.0,30.20,NE,36,0.0,2.0,50,0.00,,CLR,0.00,VWS V14.01,2013-01-21 01:33:00,
2013-01-20 19:38:00,42.1,24.8,30.20,NNE,22,3.0,3.0,50,0.00,,CLR,0.00,VWS V14.01,2013-01-21 01:38:00,
2013-01-20 19:43:00,42.0,24.7,30.20,NNE,22,0.0,1.0,50,0.00,,CLR,0.00,VWS V14.01,2013-01-21 01:43:00,
2013-01-20 19:48:00,41.8,25.0,30.20,NNE,12,0.0,1.0,51,0.00,,CLR,0.00,VWS V14.01,2013-01-21 01:48:00,
2013-01-20 19:53:00,41.6,24.4,30.20,North,11,0.0,1.0,50,0.00,,CLR,0.00,VWS V14.01,2013-01-21 01:53:00,
2013-01-20 19:58:00,41.4,24.2,30.20,NNE,12,0.0,1.0,50,0.00,,CLR,0.00,VWS V14.01,2013-01-21 01:58:00,
2013-01-20 20:03:00,41.2,24.0,30.21,North,9,0.0,2.0,50,0.00,,CLR,0.00,VWS V14.01,2013-01-21 02:03:00,
2013-01-20 20:08:00,41.1,24.4,30.21,NNE,15,2.0,3.0,51,0.00,,CLR,0.00,VWS V14.01,2013-01-21 02:08:00,
2013-01-20 20:13:00,40.8,23.6,30.21,NNE,16,0.0,1.0,50,0.00,,CLR,0.00,VWS V14.01,2013-01-21 02:13:00,
2013-01-20 20:18:00,40.6,23.9,30.21,NNE,16,0.0,0.0,51,0.00,,CLR,0.00,VWS V14.01,2013-01-21 02:18:00,
2013-01-20 20:23:00,40.4,24.6,30.21,NNE,16,0.0,0.0,53,0.00,,CLR,0.00,VWS V14.01,2013-01-21 02:23:00,
2013-01-20 20:28:00,40.1,23.9,30.21,NNE,32,0.0,1.0,52,0.00,,CLR,0.00,VWS V14.01,2013-01-21 02:28:00,
2013-01-20 20:33:00,39.8,23.6,30.20,NNE,32,0.0,0.0,52,0.00,,CLR,0.00,VWS V14.01,2013-01-21 02:33:00,
2013-01-20 20:38:00,39.6,23.0,30.21,NNE,32,0.0,0.0,51,0.00,,CLR,0.00,VWS V14.01,2013-01-21 02:38:00,
2013-01-20 20:43:00,39.3,24.1,30.21,NNE,32,0.0,0.0,54,0.00,,CLR,0.00,VWS V14.01,2013-01-21 02:43:00,
2013-01-20 20:48:00,39.0,23.3,30.20,NNE,32,0.0,0.0,53,0.00,,CLR,0.00,VWS V14.01,2013-01-21 02:48:00,
2013-01-20 20:53:00,38.8,23.6,30.21,NNE,32,0.0,0.0,54,0.00,,CLR,0.00,VWS V14.01,2013-01-21 02:53:00,
2013-01-20 20:58:00,38.5,22.9,30.21,NNE,32,1.0,1.0,53,0.00,,CLR,0.00,VWS V14.01,2013-01-21 02:58:00,
2013-01-20 21:03:00,38.4,22.8,30.21,NNE,32,0.0,0.0,53,0.00,,CLR,0.00,VWS V14.01,2013-01-21 03:03:00,
2013-01-20 21:08:00,38.4,22.8,30.21,NNE,25,0.0,3.0,53,0.00,,CLR,0.00,VWS V14.01,2013-01-21 03:08:00,
2013-01-20 21:13:00,38.2,23.0,30.21,NNE,26,0.0,0.0,54,0.00,,CLR,0.00,VWS V14.01,2013-01-21 03:13:00,
2013-01-20 21:18:00,38.0,22.9,30.21,NNE,26,0.0,0.0,54,0.00,,CLR,0.00,VWS V14.01,2013-01-21 03:18:00,
2013-01-20 21:23:00,37.7,23.0,30.21,NNE,26,0.0,0.0,55,0.00,,CLR,0.00,VWS V14.01,2013-01-21 03:23:00,
2013-01-20 21:28:00,37.3,23.1,30.21,NNE,26,0.0,0.0,56,0.00,,CLR,0.00,VWS V14.01,2013-01-21 03:28:00,
2013-01-20 21:33:00,36.9,23.1,30.21,NNE,25,0.0,0.0,57,0.00,,CLR,0.00,VWS V14.01,2013-01-21 03:33:00,
2013-01-20 21:38:00,36.5,22.7,30.21,NNE,25,0.0,1.0,57,0.00,,CLR,0.00,VWS V14.01,2013-01-21 03:38:00,
2013-01-20 21:43:00,36.3,23.0,30.21,NNE,18,0.0,0.0,58,0.00,,CLR,0.00,VWS V14.01,2013-01-21 03:43:00,
2013-01-20 21:48:00,36.1,22.4,30.21,NNE,18,0.0,0.0,57,0.00,,CLR,0.00,VWS V14.01,2013-01-21 03:48:00,
2013-01-20 21:53:00,35.9,21.8,30.21,NNE,18,0.0,0.0,56,0.00,,CLR,0.00,VWS V14.01,2013-01-21 03:53:00,
2013-01-20 21:58:00,35.9,22.6,30.21,NNE,14,0.0,2.0,58,0.00,,CLR,0.00,VWS V14.01,2013-01-21 03:58:00,
2013-01-20 22:03:00,36.0,22.3,30.21,NNE,15,0.0,1.0,57,0.00,,CLR,0.00,VWS V14.01,2013-01-21 04:03:00,
2013-01-20 22:08:00,36.1,22.4,30.21,NNE,15,0.0,2.0,57,0.00,,CLR,0.00,VWS V14.01,2013-01-21 04:08:00,
2013-01-20 22:13:00,36.0,22.7,30.21,NNE,14,0.0,0.0,58,0.00,,CLR,0.00,VWS V14.01,2013-01-21 04:13:00,
2013-01-20 22:18:00,35.8,22.1,30.22,NNE,14,0.0,0.0,57,0.00,,CLR,0.00,VWS V14.01,2013-01-21 04:18:00,
2013-01-20 22:23:00,35.7,22.0,30.22,NNE,14,0.0,1.0,57,0.00,,CLR,0.00,VWS V14.01,2013-01-21 04:23:00,
2013-01-20 22:28:00,35.5,23.4,30.21,NNE,15,0.0,1.0,61,0.00,,CLR,0.00,VWS V14.01,2013-01-21 04:28:00,
2013-01-20 22:33:00,35.4,22.1,30.21,NNE,15,0.0,0.0,58,0.00,,CLR,0.00,VWS V14.01,2013-01-21 04:33:00,
2013-01-20 22:38:00,35.2,21.9,30.21,NNE,15,0.0,1.0,58,0.00,,CLR,0.00,VWS V14.01,2013-01-21 04:38:00,
2013-01-20 22:43:00,35.1,21.8,30.21,NNE,14,0.0,0.0,58,0.00,,CLR,0.00,VWS V14.01,2013-01-21 04:43:00,
2013-01-20 22:48:00,34.9,21.6,30.21,NNE,14,0.0,0.0,58,0.00,,CLR,0.00,VWS V14.01,2013-01-21 04:48:00,
2013-01-20 22:53:00,34.7,21.5,30.21,NNE,14,0.0,0.0,58,0.00,,CLR,0.00,VWS V14.01,2013-01-21 04:53:00,
2013-01-20 22:58:00,34.6,21.8,30.21,NNE,15,0.0,0.0,59,0.00,,CLR,0.00,VWS V14.01,2013-01-21 04:58:00,
2013-01-20 23:03:00,34.3,21.5,30.21,NNE,15,0.0,1.0,59,0.00,,CLR,0.00,VWS V14.01,2013-01-21 05:03:00,
2013-01-20 23:08:00,34.1,21.3,30.21,NNE,15,0.0,0.0,59,0.00,,CLR,0.00,VWS V14.01,2013-01-21 05:08:00,
2013-01-20 23:13:00,33.9,21.9,30.21,NNE,15,0.0,0.0,61,0.00,,CLR,0.00,VWS V14.01,2013-01-21 05:13:00,
2013-01-20 23:18:00,33.7,21.3,30.21,NNE,14,0.0,0.0,60,0.00,,CLR,0.00,VWS V14.01,2013-01-21 05:18:00,
2013-01-20 23:23:00,33.3,21.7,30.21,NNE,15,0.0,0.0,62,0.00,,CLR,0.00,VWS V14.01,2013-01-21 05:23:00,
2013-01-20 23:28:00,33.0,22.2,30.21,NNE,14,0.0,0.0,64,0.00,,CLR,0.00,VWS V14.01,2013-01-21 05:28:00,
2013-01-20 23:33:00,32.6,21.8,30.21,NNE,15,0.0,0.0,64,0.00,,CLR,0.00,VWS V14.01,2013-01-21 05:33:00,
2013-01-20 23:39:00,32.3,22.2,30.21,NNE,14,0.0,0.0,66,0.00,,CLR,0.00,VWS V14.01,2013-01-21 05:39:00,
2013-01-20 23:44:00,32.0,22.3,30.21,NNE,14,0.0,0.0,67,0.00,,CLR,0.00,VWS V14.01,2013-01-21 05:44:00,
2013-01-20 23:49:00,31.7,22.0,30.21,NNE,14,0.0,0.0,67,0.00,,CLR,0.00,VWS V14.01,2013-01-21 05:49:00,
2013-01-20 23:54:00,31.4,22.1,30.21,NNE,14,0.0,0.0,68,0.00,,CLR,0.00,VWS V14.01,2013-01-21 05:54:00,
2013-01-20 23:59:00,31.1,21.8,30.21,NNE,15,0.0,0.0,68,0.00,,CLR,0.00,VWS V14.01,2013-01-21 05:59:00,